sat.trackr.live / text

‹ back to catalog

GNOMES-4

NORAD 58462 · 2023-185A

PAYLOAD ACTIVE UNKNOWN

§ Identity

Operator
Country
US
Launch date
2023-12-01
Launch site
AFWTR
Launch vehicle
Mass (kg)
RCS (m²)

External: N2YO · Heavens-Above · Gunter

§ Orbital elements

Epoch: 2026-05-25T05:11:06.811584Z

Period
95.96 min
Inclination
97.4872°
Eccentricity
0.0012368
Mean motion
15.00681102 rev/d
Perigee alt
556.2 km
Apogee alt
573.4 km
Semi-major
6,942.9 km
B*
2.6731e-4
RAAN
203.2188°
Arg perigee
52.1897°
Mean anomaly
308.0445°
Rev number
13,584

§ Raw data

GNOMES-41 58462U 23185A   26145.21605106  .00003332  00000+0  26731-3 0  99952 58462  97.4872 203.2188 0012368  52.1897 308.0445 15.00681102135849

JSON: /api/v1/satellites/58462 · /tle

For live sub-satellite position, see the globe view (requires WebGL).

§ Visibility from observer

Set your observer location to see the next 7 days of passes ≥ 10°. The values pass through the URL so the page stays shareable.

No JS? Fill the form by hand. The geolocation button needs JavaScript.